Date,TemperatureHighF,TemperatureAvgF,TemperatureLowF,DewpointHighF,DewpointAvgF,DewpointLowF,HumidityHigh,HumidityAvg,HumidityLow,PressureMaxIn,PressureMinIn,WindSpeedMaxMPH,WindSpeedAvgMPH,GustSpeedMaxMPH,PrecipitationSumIn
2013-6-1,71.4,65.8,60.3,65.3,62.2,58.8,95,88,79,30.02,29.93,8,5,19,0.00
2013-6-2,67.9,63.7,62.0,63.6,61.7,60.2,96,94,86,29.95,29.88,7,5,17,0.00
2013-6-3,65.3,62.7,60.5,64.7,62.0,59.9,99,98,97,29.84,29.79,7,3,18,0.34
2013-6-4,71.5,63.1,56.6,65.1,50.9,43.6,99,66,42,30.07,29.82,11,6,25,0.00
2013-6-5,67.7,58.8,54.6,53.7,49.8,47.0,89,73,48,30.19,30.07,8,3,13,0.00
2013-6-7,66.9,61.2,58.6,66.1,60.5,57.8,98,97,97,29.92,29.63,13,8,27,2.54
2013-6-8,70.5,64.3,55.1,65.4,61.5,54.5,98,91,74,30.02,29.48,10,6,23,0.05
2013-6-9,72.2,63.9,59.2,63.0,61.0,58.1,96,91,71,30.15,30.02,8,1,11,0.01
2013-6-10,69.6,63.3,60.1,65.5,61.7,59.2,98,95,85,30.14,29.86,10,6,22,2.45
2013-6-11,73.7,67.3,63.3,67.9,65.0,62.4,99,93,81,29.86,29.59,10,6,22,0.33
2013-6-12,75.2,69.0,60.4,62.4,55.7,53.3,85,64,49,29.83,29.64,12,7,29,0.00
2013-6-13,65.0,60.1,55.9,60.2,56.7,53.1,95,89,75,29.82,29.46,14,6,33,0.64
2013-6-14,70.5,60.5,54.0,58.1,54.4,51.1,96,81,58,29.83,29.46,11,7,28,0.18
2013-6-15,79.9,67.6,59.9,60.9,56.1,43.0,94,70,31,29.96,29.82,9,4,18,0.00
2013-6-16,70.7,65.8,57.9,65.7,62.0,56.4,96,88,75,29.96,29.77,8,3,17,0.00
2013-6-17,75.8,69.5,63.8,68.6,65.6,62.6,97,87,76,29.90,29.82,6,3,15,0.00
2013-6-18,73.9,66.4,62.1,68.1,63.9,60.9,97,92,80,29.90,29.82,9,3,18,0.58
2013-6-19,77.0,66.5,60.0,61.0,57.5,48.2,96,75,37,30.15,29.83,7,5,20,0.00
2013-6-20,72.5,65.5,58.2,61.6,58.1,54.3,88,78,58,30.27,30.15,10,4,17,0.00
2013-6-21,73.1,67.2,62.6,63.0,60.8,58.1,91,80,64,30.30,30.25,8,4,16,0.00
2013-6-22,73.9,67.3,63.3,65.9,63.6,61.2,96,88,71,30.26,30.15,10,4,19,0.00
2013-6-23,76.5,70.2,65.2,70.0,66.7,63.3,97,89,76,30.18,30.07,10,5,21,0.00
2013-6-24,81.9,74.2,69.0,74.0,70.0,65.1,98,87,66,30.08,29.93,9,4,19,0.00
2013-6-25,79.6,74.0,67.3,72.1,69.2,64.1,93,85,75,29.98,29.78,7,4,18,0.00
2013-6-26,81.9,74.4,70.2,72.2,69.4,66.8,94,85,71,29.83,29.74,9,4,21,0.00
2013-6-27,80.5,72.7,68.2,73.7,69.8,65.9,97,91,79,29.82,29.63,9,3,19,0.10
2013-6-28,77.1,72.6,70.5,72.7,70.6,69.3,97,94,86,29.63,29.50,13,8,27,0.00
2013-6-29,77.4,71.6,69.4,72.7,68.0,-99.9,98,91,83,29.72,29.49,11,-8,20,0.01
2013-6-30,73.3,71.3,70.0,71.6,69.8,68.1,97,95,87,29.93,29.72,9,4,18,0.01